Marshfield, WI

4:09 PM CDT on October 21, 2019 (GMT -0500)
Marshfield Municipal

Weather History for KMFI - August, 2019

Change the Weather History Date:

Monday, August 19, 2019

  Actual Average Record
Temperature  
Mean Temperature 64 °F -  
Max Temperature 77 °F 79 °F 93 °F (1916)
Min Temperature 52 °F 55 °F 36 °F (1967)
Degree Days  
Heating Degree Days 2    
Growing Degree Days 14 (Base 50)    
Moisture  
Dew Point 53 °F    
Average Humidity 71    
Maximum Humidity 96    
Minimum Humidity 42    
Precipitation  
Precipitation 0.00 in - - ()
Sea Level Pressure  
Sea Level Pressure 30.01 in    
Wind  
Wind Speed 3 mph (West)    
Max Wind Speed 10 mph    
Max Gust Speed -    
Visibility 10 miles    
Events      
Averages and records for this station are not official NWS values.
T = Trace of Precipitation, MM = Missing Value Source: NWS Daily Summary

Daily Weather History Graph

Daily Weather History Graph

Search for Another Location

Airport or City:

Astronomy

Aug. 19, 2019 Rise Set
Actual Time 6:07 AM CDT 8:00 PM CDT
Civil Twilight 5:36 AM CDT 8:31 PM CDT
Nautical Twilight 4:58 AM CDT 9:09 PM CDT
Astronomical Twilight 4:16 AM CDT 9:51 PM CDT
Moon 10:12 PM CDT (8/19) 9:57 AM CDT (8/19)
Length of Visible Light 14h 55m
Length of Day
13h 52m
Waning Gibbous, 85% of the Moon is Illuminated
Aug 19
Waning Gibbous
Aug 23
Last Quarter
Aug 30
New
Sep 5
First Quarter
Sep 13
Full

Hourly Weather History & Observations

Time (CDT) Temp. Dew Point Humidity Pressure Visibility Wind Dir Wind Speed Gust Speed Precip Events Conditions
12:54 AM 55.9 °F 53.1 °F 90% 29.94 in 10.0 mi Calm Calm - N/A   Clear
1:54 AM 54.0 °F 52.0 °F 93% 29.95 in 10.0 mi WNW 3.5 mph - N/A   Clear
2:54 AM 53.1 °F 52.0 °F 96% 29.97 in 10.0 mi Calm Calm - N/A   Clear
3:54 AM 53.1 °F 51.1 °F 93% 29.98 in 10.0 mi NW 4.6 mph - N/A   Clear
4:54 AM 52.0 °F 50.0 °F 93% 29.99 in 10.0 mi NW 5.8 mph - N/A   Clear
5:54 AM 52.0 °F 50.0 °F 93% 30.01 in 10.0 mi NW 4.6 mph - N/A   Clear
6:54 AM 53.1 °F 51.1 °F 93% 30.01 in 10.0 mi NNW 3.5 mph - N/A   Clear
7:54 AM 60.1 °F 55.0 °F 83% 30.03 in 10.0 mi Calm Calm - N/A   Clear
8:54 AM 64.9 °F 55.9 °F 73% 30.02 in 10.0 mi Calm Calm - N/A   Clear
9:54 AM 68.0 °F 52.0 °F 56% 30.03 in 10.0 mi SSE 4.6 mph - N/A   Clear
10:54 AM 71.1 °F 51.1 °F 49% 30.04 in 10.0 mi SW 5.8 mph - N/A   Clear
11:54 AM 73.0 °F 52.0 °F 48% 30.04 in 10.0 mi Variable 4.6 mph - N/A   Clear
12:54 PM 73.9 °F 51.1 °F 45% 30.04 in 10.0 mi WSW 4.6 mph - N/A   Clear
1:54 PM 75.9 °F 53.1 °F 45% 30.04 in 10.0 mi West 5.8 mph - N/A   Clear
2:54 PM 75.9 °F 52.0 °F 43% 30.03 in 10.0 mi West 6.9 mph - N/A   Clear
3:54 PM 75.9 °F 53.1 °F 45% 30.02 in 10.0 mi West 10.4 mph - N/A   Clear
4:54 PM 75.9 °F 51.1 °F 42% 30.02 in 10.0 mi West 9.2 mph - N/A   Clear
5:54 PM 75.0 °F 54.0 °F 48% 30.01 in 10.0 mi West 6.9 mph - N/A   Clear
6:54 PM 73.0 °F 55.9 °F 55% 30.01 in 10.0 mi West 3.5 mph - N/A   Clear
7:54 PM 69.1 °F 57.9 °F 68% 30.01 in 10.0 mi Calm Calm - N/A   Clear
8:54 PM 63.0 °F 57.0 °F 81% 30.02 in 10.0 mi Calm Calm - N/A   Clear
9:54 PM 61.0 °F 55.9 °F 83% 30.03 in 10.0 mi Calm Calm - N/A   Clear
10:54 PM 59.0 °F 55.9 °F 90% 30.04 in 10.0 mi Calm Calm - N/A   Clear
11:54 PM 59.0 °F 55.0 °F 87% 30.04 in 10.0 mi Calm Calm - N/A   Clear